SL-14 DEB, 47083

Orbit data source: Space-Track

SL-14 DEB, 47083 is space debris in LEO originally from a launch on Thu, 15 Aug 1991 UTC launched from the Plesetsk Missile And Space Complex (PKMTR). Debris objects in space refer to the collection of defunct objects orbiting the Earth. Examples of debris include non-operational satellites, rocket bodies, and fragments generated from explosions, collisions, or faulty payload assembly.

Loading next visibility...
Identifier
47083, 1991-056DH
Orbit
LEO
Last TLE update
4 months ago
Origin
Manufacturer
Unknown
Mission
Spacecraft
Bus & Motor
Unknown
Mass
Unknown
Launch date (UTC)
1991-08-15 (34 years ago)
Launch vehicle
Unknown
Launch site
Plesetsk Missile And Space Complex (PKMTR)
Object type
Payload
Rocket body
Debris
Shape & HBR
Unknown
Radar Cross Section
Small (<0.1 m²)

Expand to show TLE details & history

TLE from 4 months ago
0 SL-14 DEB
1 47083U 91056DH  25066.42435644  .00066642  00000-0  14014-1 0  9999
2 47083  82.6235 315.0648 0121654 276.3033  82.4322 14.54623720220144
Epoch: 2025-03-07T10:11Z
TLE epoch observation values (Epoch: 2025-03-07T10:11:04.396Z)
Latitude
-0.00003°
Longitude
-3.08843°
Altitude
703.263 km
Speed
7.51 km/s
True Right ascension
21h 00m 15s
True Declination
0° 00' 00"
Sunlit
Object was in daylight at epoch
Visualization orbit readout
Latitude
-78.36858°
Longitude
106.97531°
Altitude
603.378 km
Speed
7.595 km/s
Apparent Right ascension
23h 42m 17s
Apparent Declination
-64° 25' 39"
Sunlit
Object is in daylight
Visualization observer readout
Local Sidereal Time
10:39:37
Azimuth
195.331° SSW
Elevation
-63.842°
Doppler factor
1
Orbital elements
Apogee altitude
793.84 km
Perigee altitude
621.437 km
Semi-major axis
7,085.776 km
Eccentricity
0.01217
Inclination
82.6235°
RAAN
315.0648°
Arg. of periapsis
276.3033°
True anomaly
Unknown
Mean anomaly
82.4322°
Eccentric anomaly
Unknown
Mean motion
3.63883 °/min
Orbital period
98.93 mins
BSTAR
0.014014
Loading maneuver chart data...
Loading SW <> Apogee altitude chart data...
Loading historical data...
Loading historical data...
Loading historical data...
Loading historical data...
Loading historical data...
Loading historical data...
Loading historical data...

SL-14 DEB Visibility forecast

Observer location: undefined°, undefined°

Span
Click to sort rows by Start time (UTC) header in descending order
Start Az.
Max El. time (UTC)
Max El. Az.
Max El.
End time (UTC)
End Az.
5 mins2025-07-07 00:52:27.500Z116.24° SE2025-07-07 00:54:27.500Z90.598° ESE14.934°2025-07-07 00:57:27.500Z51.197° ENE
8 mins2025-07-07 02:29:27.500Z209.967° SW2025-07-07 02:32:27.500Z263.85° W37.432°2025-07-07 02:37:27.500Z356.601° N
7 mins2025-07-07 12:43:27.500Z17.634° NNE2025-07-07 12:46:27.500Z88.83° E33.879°2025-07-07 12:50:27.500Z149.623° SSE
4 mins2025-07-07 14:22:27.500Z300.554° NW2025-07-07 14:24:27.500Z270.495° WNW16.224°2025-07-07 14:26:27.500Z242.171° WSW
|